User: anonymous   Login
Location: Weston
(26.1283°N, 80.4075°W)
Time: 14:56:56
(UTC-04:00)
Language:

H-2A R/B - Orbit

View from above orbital plane
View from above orbital plane
View from above satellite
View from above satellite

Ground track
Ground track

The orbit data is extracted from the following two-line orbital elements,

1 26899U 01038B   15240.39667230  .00001311  00000-0  49961-3 0  9992
2 26899 028.3912 332.3973 7128789 112.5968 354.3721 02.45998217120235
Epoch (UTC): 28 August 2015 09:31:12
Eccentricity: 0.7128789
inclination: 28.3912°
perigee height: 277 km
apogee height: 33326 km
right ascension of ascending node: 332.3973°
argument of perigee: 112.5968°
revolutions per day: 2.45998217
mean anomaly at epoch: 354.3721°
orbit number at epoch: 12023

The dashed part of the orbit path shows where the satellite is in the earth's shadow,  

DLR